GW7528 Weather Reports


time (UTC)temp
C
wind
direction
speed
KPH
gust
KPH
rain 1hr
cm
rain 24hr
cm
rain mn
cm
humidity
%
barometer
mb
20260906052359 24 330 0.0 3.2 0.00 0.00 0.00 94 1011.9
20260906051859 24 73 0.0 1.6 0.00 0.00 0.00 94 1012.0
20260906051359 24 325 0.0 3.2 0.00 0.00 0.00 94 1012.1
20260906050859 24 330 1.6 3.2 0.00 0.00 0.00 94 1012.2
20260906050400 24 325 1.6 1.6 0.00 0.00 0.00 95 1012.3
20260906045859 24 209 0.0 1.6 0.00 0.00 0.00 95 1012.2
20260906045359 24 339 0.0 3.2 0.00 0.00 0.00 94 1012.2
20260906044859 25 105 1.6 3.2 0.00 0.00 0.00 93 1012.2
20260906044359 25 91 0.0 3.2 0.00 0.00 0.00 93 1012.2
20260906043900 25 70 1.6 3.2 0.00 0.00 0.00 92 1012.2
20260906043359 25 317 0.0 1.6 0.00 0.00 0.00 91 1012.2
20260906042859 25 294 0.0 1.6 0.00 0.00 0.00 91 1012.2
20260906042359 25 249 0.0 1.6 0.00 0.00 0.00 92 1012.1
20260906041900 25 360 0.0 0.0 0.00 0.00 0.00 92 1012.1
20260906041401 25 26 0.0 1.6 0.00 0.00 0.00 91 1012.1
20260906040859 25 360 0.0 0.0 0.00 0.00 0.00 90 1012.1
20260906040359 25 360 0.0 0.0 0.00 0.00 0.00 90 1012.1
20260906035858 25 42 0.0 0.0 0.00 0.00 0.00 89 1012.0
20260906035359 25 360 0.0 0.0 0.00 0.00 0.00 87 1012.1
20260906034859 25 310 0.0 1.6 0.00 0.00 0.00 87 1012.1
20260906034400 25 360 0.0 0.0 0.00 0.00 0.00 89 1012.1
20260906033859 25 35 0.0 1.6 0.00 0.00 0.00 87 1012.1
20260906033359 26 89 0.0 1.6 0.00 0.00 0.00 88 1012.0
20260906032859 25 360 0.0 0.0 0.00 0.00 0.00 88 1012.0
20260906032359 25 360 0.0 0.0 0.00 0.00 0.00 87 1012.1
20260906031859 26 52 0.0 0.0 0.00 0.00 0.00 85 1012.0
20260906031359 26 360 0.0 0.0 0.00 0.00 0.00 85 1011.9
20260906030859 26 360 0.0 0.0 0.00 0.00 0.00 85 1011.9
20260906030359 26 360 0.0 0.0 0.00 0.00 0.00 86 1011.9
20260906025859 26 360 0.0 0.0 0.00 0.00 0.00 85 1011.8
20260906025359 26 60 0.0 1.6 0.00 0.00 0.00 84 1011.8
20260906024859 26 360 0.0 0.0 0.00 0.00 0.00 83 1011.8
20260906024359 26 276 0.0 1.6 0.00 0.00 0.00 84 1011.7
20260906023859 26 211 0.0 1.6 0.00 0.00 0.00 83 1011.6
20260906023400 26 266 3.2 4.8 0.00 0.00 0.00 81 1011.5
20260906022900 26 239 3.2 3.2 0.00 0.00 0.00 80 1011.4
20260906022359 26 204 0.0 0.0 0.00 0.00 0.00 80 1011.3
20260906021859 26 52 0.0 1.6 0.00 0.00 0.00 79 1011.3
20260906021400 26 53 0.0 3.2 0.00 0.00 0.00 80 1011.3
20260906020859 27 49 1.6 3.2 0.00 0.00 0.00 80 1011.3
20260906020406 27 26 1.6 3.2 0.00 0.00 0.00 79 1011.3
20260906015900 27 319 1.6 4.8 0.00 0.00 0.00 78 1011.3
20260906015359 27 338 0.0 1.6 0.00 0.00 0.00 78 1011.4
20260906014859 27 314 3.2 3.2 0.00 0.00 0.00 78 1011.3
20260906014359 27 333 0.0 1.6 0.00 0.00 0.00 77 1011.2
20260906013859 27 26 1.6 1.6 0.00 0.00 0.00 77 1011.2
20260906013359 27 333 0.0 1.6 0.00 0.00 0.00 77 1011.1
20260906012859 28 330 0.0 3.2 0.00 0.00 0.00 77 1011.1
20260906012402 28 311 1.6 3.2 0.00 0.00 0.00 75 1011.0
20260906011900 28 312 1.6 3.2 0.00 0.00 0.00 74 1011.0
20260906011359 28 334 0.0 3.2 0.00 0.00 0.00 73 1010.9
20260906010859 28 323 1.6 3.2 0.00 0.00 0.00 72 1010.8
20260906010359 28 330 1.6 3.2 0.00 0.00 0.00 73 1010.8
20260906005900 29 309 3.2 3.2 0.00 0.00 0.00 72 1010.7
20260906005359 29 25 0.0 1.6 0.00 0.00 0.00 70 1010.7
20260906004859 30 38 1.6 3.2 0.00 0.00 0.00 71 1010.6
20260906004359 30 318 1.6 3.2 0.00 0.00 0.00 69 1010.5
20260906003859 30 318 1.6 3.2 0.00 0.00 0.00 68 1010.5
20260906003400 30 310 4.8 6.4 0.00 0.00 0.00 65 1010.5
20260906002859 31 318 1.6 3.2 0.00 0.00 0.00 65 1010.5
20260906002359 31 315 3.2 4.8 0.00 0.00 0.00 63 1010.6
20260906001859 32 314 3.2 4.8 0.00 0.00 0.00 62 1010.6
20260906001359 32 310 3.2 4.8 0.00 0.00 0.00 60 1010.6
20260906000859 33 305 6.4 6.4 0.00 0.00 0.00 58 1010.6
20260906000359 33 307 4.8 6.4 0.00 0.00 0.00 56 1010.6
20260905235859 34 43 1.6 3.2 0.00 0.00 0.00 55 1010.7
20260905235359 35 82 1.6 3.2 0.00 0.00 0.00 53 1010.8
20260905234859 35 120 1.6 3.2 0.00 0.00 0.00 52 1010.7
20260905234359 35 113 1.6 3.2 0.00 0.00 0.00 49 1010.7
20260905233859 35 89 1.6 3.2 0.00 0.00 0.00 49 1010.8
20260905233359 36 51 1.6 3.2 0.00 0.00 0.00 49 1010.8
20260905232859 36 98 3.2 3.2 0.00 0.00 0.00 46 1010.8
20260905232400 36 33 1.6 3.2 0.00 0.00 0.00 46 1010.7
20260905231859 36 310 4.8 8.0 0.00 0.00 0.00 45 1010.6
20260905231359 36 81 1.6 3.2 0.00 0.00 0.00 46 1010.6
20260905230859 36 11 1.6 3.2 0.00 0.00 0.00 47 1010.6
20260905230359 36 302 4.8 6.4 0.00 0.00 0.00 44 1010.5
20260905225900 36 300 6.4 9.7 0.00 0.00 0.00 45 1010.6
20260905225359 36 72 3.2 4.8 0.00 0.00 0.00 45 1010.6
20260905224859 36 47 3.2 4.8 0.00 0.00 0.00 45 1010.6
20260905224359 36 48 4.8 6.4 0.00 0.00 0.00 46 1010.6
20260905223900 36 68 6.4 8.0 0.00 0.00 0.00 46 1010.7
20260905223400 36 12 3.2 4.8 0.00 0.00 0.00 45 1010.7
20260905222859 37 74 6.4 8.0 0.00 0.00 0.00 45 1010.7
20260905222359 37 300 9.7 11.3 0.00 0.00 0.00 44 1010.7
20260905221903 36 316 4.8 8.0 0.00 0.00 0.00 44 1010.8
20260905221359 36 48 6.4 8.0 0.00 0.00 0.00 45 1010.8
20260905220859 36 101 4.8 8.0 0.00 0.00 0.00 44 1010.8
20260905220359 36 84 6.4 8.0 0.00 0.00 0.00 45 1010.8
20260905215859 36 12 4.8 8.0 0.00 0.00 0.00 45 1010.8
20260905215359 36 69 8.0 9.7 0.00 0.00 0.00 44 1010.8
20260905214859 36 62 6.4 11.3 0.00 0.00 0.00 44 1010.8
20260905214359 36 60 4.8 6.4 0.00 0.00 0.00 46 1010.8
20260905213900 35 77 4.8 6.4 0.00 0.00 0.00 47 1010.8
20260905213359 35 50 4.8 6.4 0.00 0.00 0.00 46 1010.8
20260905212859 36 64 6.4 6.4 0.00 0.00 0.00 47 1010.8
20260905212359 36 51 6.4 8.0 0.00 0.00 0.00 47 1010.9
20260905211859 36 359 6.4 6.4 0.00 0.00 0.00 46 1010.8
20260905211359 37 11 9.7 14.5 0.00 0.00 0.00 45 1010.8
20260905210901 37 27 9.7 12.9 0.00 0.00 0.00 44 1010.8
20260905210359 37 338 4.8 9.7 0.00 0.00 0.00 42 1010.9
20260905205859 37 151 3.2 4.8 0.00 0.00 0.00 42 1011.0
20260905205359 37 70 8.0 11.3 0.00 0.00 0.00 43 1011.1
20260905204859 37 78 3.2 4.8 0.00 0.00 0.00 43 1011.1
20260905204400 37 76 8.0 12.9 0.00 0.00 0.00 43 1011.2
20260905203900 37 60 6.4 9.7 0.00 0.00 0.00 43 1011.3
20260905203359 36 251 3.2 6.4 0.00 0.00 0.00 44 1011.3
20260905202859 36 75 9.7 12.9 0.00 0.00 0.00 46 1011.3
20260905202359 36 311 6.4 8.0 0.00 0.00 0.00 47 1011.4
20260905201900 36 114 1.6 3.2 0.00 0.00 0.00 48 1011.5
20260905201359 36 349 6.4 9.7 0.00 0.00 0.00 47 1011.6
20260905200859 37 29 4.8 9.7 0.00 0.00 0.00 47 1011.6
20260905200359 37 318 9.7 14.5 0.00 0.00 0.00 46 1011.6
20260905195859 37 53 4.8 9.7 0.00 0.00 0.00 44 1011.7
20260905195359 36 99 6.4 8.0 0.00 0.00 0.00 44 1011.8
20260905194901 36 140 9.7 14.5 0.00 0.00 0.00 44 1011.8
20260905194359 36 115 6.4 11.3 0.00 0.00 0.00 45 1012.0
20260905193859 36 78 8.0 14.5 0.00 0.00 0.00 45 1012.1
20260905193400 36 58 4.8 9.7 0.00 0.00 0.00 46 1012.2
20260905192903 36 316 8.0 16.1 0.00 0.00 0.00 46 1012.3
20260905192359 36 27 1.6 3.2 0.00 0.00 0.00 46 1012.5
20260905191859 36 30 11.3 14.5 0.00 0.00 0.00 46 1012.5
20260905191400 36 69 11.3 14.5 0.00 0.00 0.00 46 1012.7
20260905190859 36 47 6.4 11.3 0.00 0.00 0.00 46 1012.7
20260905190359 36 344 6.4 9.7 0.00 0.00 0.00 47 1012.8
20260905185900 36 347 4.8 8.0 0.00 0.00 0.00 49 1013.0
20260905185359 36 65 8.0 12.9 0.00 0.00 0.00 49 1013.0
20260905184859 36 49 11.3 14.5 0.00 0.00 0.00 47 1013.0
20260905184359 36 70 6.4 9.7 0.00 0.00 0.00 49 1013.0
20260905183901 36 83 11.3 14.5 0.00 0.00 0.00 48 1013.0
20260905183400 36 111 11.3 14.5 0.00 0.00 0.00 48 1013.1
20260905182859 36 82 9.7 14.5 0.00 0.00 0.00 49 1013.2
20260905182359 36 53 11.3 16.1 0.00 0.00 0.00 49 1013.2
20260905181859 35 24 4.8 8.0 0.00 0.00 0.00 49 1013.2
20260905181359 36 78 8.0 11.3 0.00 0.00 0.00 49 1013.2
20260905180900 36 84 9.7 11.3 0.00 0.00 0.00 49 1013.2
20260905180359 35 6 6.4 9.7 0.00 0.00 0.00 50 1013.4
20260905175901 35 62 8.0 9.7 0.00 0.00 0.00 51 1013.4
20260905175359 35 76 11.3 14.5 0.00 0.00 0.00 50 1013.4
20260905174859 35 75 8.0 12.9 0.00 0.00 0.00 51 1013.5
20260905174359 35 300 6.4 9.7 0.00 0.00 0.00 50 1013.4
20260905173859 35 360 3.2 4.8 0.00 0.00 0.00 51 1013.5
20260905173359 35 360 4.8 6.4 0.00 0.00 0.00 50 1013.5
20260905172900 35 24 4.8 9.7 0.00 0.00 0.00 52 1013.5
20260905172359 35 88 6.4 9.7 0.00 0.00 0.00 51 1013.5
20260905171900 35 95 9.7 12.9 0.00 0.00 0.00 52 1013.5
20260905171400 35 65 11.3 14.5 0.00 0.00 0.00 51 1013.6
20260905170859 35 111 4.8 6.4 0.00 0.00 0.00 50 1013.7
20260905170359 35 66 8.0 11.3 0.00 0.00 0.00 51 1013.8
20260905165859 35 121 6.4 9.7 0.00 0.00 0.00 50 1013.8
20260905165359 35 159 3.2 4.8 0.00 0.00 0.00 50 1013.9
20260905164859 35 294 6.4 9.7 0.00 0.00 0.00 51 1014.0
20260905164359 35 112 3.2 3.2 0.00 0.00 0.00 53 1014.1
20260905163900 35 312 3.2 8.0 0.00 0.00 0.00 51 1014.3
20260905163359 34 291 3.2 6.4 0.00 0.00 0.00 54 1014.4
20260905162859 34 44 3.2 8.0 0.00 0.00 0.00 54 1014.4
20260905162359 33 334 3.2 6.4 0.00 0.00 0.00 56 1014.5
20260905161859 33 55 4.8 8.0 0.00 0.00 0.00 57 1014.6
20260905161359 33 299 9.7 12.9 0.00 0.00 0.00 57 1014.6
20260905160859 33 105 3.2 4.8 0.00 0.00 0.00 58 1014.6
20260905160359 33 325 4.8 8.0 0.00 0.00 0.00 58 1014.7
20260905155900 32 239 3.2 6.4 0.00 0.00 0.00 58 1014.7
20260905155359 32 83 8.0 9.7 0.00 0.00 0.00 59 1014.7
20260905154901 32 87 4.8 6.4 0.00 0.00 0.00 59 1014.8
20260905154400 32 47 3.2 6.4 0.00 0.00 0.00 61 1014.8
20260905153859 32 49 6.4 8.0 0.00 0.00 0.00 61 1014.8
20260905153359 32 18 1.6 3.2 0.00 0.00 0.00 63 1014.8
20260905152859 31 53 4.8 6.4 0.00 0.00 0.00 65 1014.9
20260905152359 31 73 8.0 9.7 0.00 0.00 0.00 66 1014.9
20260905151859 31 59 6.4 9.7 0.00 0.00 0.00 68 1014.9
20260905151401 31 69 8.0 11.3 0.00 0.00 0.00 67 1014.9
20260905150859 31 51 3.2 4.8 0.00 0.00 0.00 68 1014.8
20260905150400 31 82 6.4 8.0 0.00 0.00 0.00 68 1014.8
20260905145859 30 5 3.2 6.4 0.00 0.00 0.00 68 1014.8
20260905145359 30 42 6.4 9.7 0.00 0.00 0.00 70 1014.9
20260905144859 30 56 4.8 6.4 0.00 0.00 0.00 69 1014.9
20260905144359 30 353 3.2 3.2 0.00 0.00 0.00 72 1014.9
20260905143859 30 69 4.8 6.4 0.00 0.00 0.00 72 1014.9
20260905143359 30 68 6.4 8.0 0.00 0.00 0.00 73 1015.0
20260905142859 30 107 3.2 6.4 0.00 0.00 0.00 73 1015.0
20260905142359 29 98 3.2 4.8 0.00 0.00 0.00 75 1015.1
20260905141859 28 94 1.6 3.2 0.00 0.00 0.00 76 1015.1
20260905141400 28 343 3.2 3.2 0.00 0.00 0.00 78 1015.1
20260905140900 27 138 1.6 3.2 0.00 0.00 0.00 80 1015.1
20260905140401 27 46 3.2 3.2 0.00 0.00 0.00 82 1015.1
20260905135900 27 51 1.6 3.2 0.00 0.00 0.00 84 1015.1
20260905135359 26 36 1.6 3.2 0.00 0.00 0.00 85 1015.1
20260905134859 26 110 1.6 3.2 0.00 0.00 0.00 86 1015.1
20260905134400 26 108 1.6 3.2 0.00 0.00 0.00 88 1015.2
20260905133859 26 72 1.6 3.2 0.00 0.00 0.00 90 1015.2
20260905133400 25 62 3.2 4.8 0.00 0.00 0.00 91 1015.2
20260905132859 25 68 3.2 4.8 0.00 0.00 0.00 91 1015.2
20260905132400 25 72 3.2 4.8 0.00 0.00 0.00 93 1015.1
20260905131900 25 64 3.2 4.8 0.00 0.00 0.00 94 1015.1
20260905131359 25 60 4.8 6.4 0.00 0.00 0.00 95 1015.1
20260905130859 24 97 3.2 3.2 0.00 0.00 0.00 96 1015.0
20260905130359 24 120 1.6 3.2 0.00 0.00 0.00 98 1015.0
20260905125859 24 145 4.8 6.4 0.00 0.00 0.00 98 1014.9
20260905125359 23 148 3.2 6.4 0.00 0.00 0.00 99 1014.9
20260905124900 23 161 4.8 6.4 0.00 0.00 0.00 99 1015.0
20260905124400 23 166 3.2 4.8 0.00 0.00 0.00 99 1015.0
20260905123901 23 174 3.2 4.8 0.00 0.00 0.00 100 1015.0
20260905123359 23 127 1.6 3.2 0.00 0.00 0.00 100 1015.0
20260905122859 22 155 4.8 6.4 0.00 0.00 0.00 99 1015.1
20260905122359 22 354 1.6 4.8 0.00 0.00 0.00 99 1015.0
20260905121859 22 357 1.6 3.2 0.00 0.00 0.00 99 1014.9
20260905121359 22 332 1.6 4.8 0.00 0.00 0.00 99 1015.0
20260905120859 22 122 0.0 3.2 0.00 0.00 0.00 99 1015.0
20260905120359 22 109 3.2 3.2 0.00 0.00 0.00 99 1014.9
20260905115859 22 148 6.4 6.4 0.00 0.00 0.00 100 1014.9
20260905115400 22 106 1.6 4.8 0.00 0.00 0.00 99 1014.7
20260905114859 22 129 1.6 4.8 0.00 0.00 0.00 99 1014.7
20260905114359 22 147 4.8 6.4 0.00 0.00 0.00 99 1014.7
20260905113859 22 100 3.2 3.2 0.00 0.00 0.00 99 1014.7
20260905113359 22 310 1.6 3.2 0.00 0.00 0.00 99 1014.6
20260905112859 22 113 1.6 4.8 0.00 0.00 0.00 99 1014.6
20260905112359 22 72 3.2 4.8 0.00 0.00 0.00 99 1014.6
20260905111859 22 330 1.6 3.2 0.00 0.00 0.00 99 1014.5
20260905111359 22 211 3.2 4.8 0.00 0.00 0.00 99 1014.4
20260905110859 22 290 3.2 4.8 0.00 0.00 0.00 99 1014.1
20260905110359 22 200 4.8 4.8 0.00 0.00 0.00 99 1014.3
20260905105859 22 182 3.2 3.2 0.00 0.00 0.00 99 1014.3
20260905105359 22 315 1.6 3.2 0.00 0.00 0.00 99 1014.0
20260905104859 22 122 1.6 4.8 0.00 0.00 0.00 99 1013.9
20260905104359 23 131 0.0 0.0 0.00 0.00 0.00 99 1013.8
20260905103859 23 128 1.6 4.8 0.00 0.00 0.00 99 1013.8
20260905103400 23 192 4.8 4.8 0.00 0.00 0.00 99 1013.7
20260905102859 23 176 4.8 4.8 0.00 0.00 0.00 99 1013.6
20260905102359 23 323 0.0 3.2 0.00 0.00 0.00 99 1013.7
20260905101859 23 312 1.6 4.8 0.00 0.00 0.00 99 1013.7
20260905101359 23 316 1.6 3.2 0.00 0.00 0.00 99 1013.6
20260905100859 23 348 1.6 3.2 0.00 0.00 0.00 98 1013.6
20260905100400 23 19 1.6 3.2 0.00 0.00 0.00 98 1013.6
20260905095859 23 309 0.0 3.2 0.00 0.00 0.00 99 1013.6
20260905095359 23 349 4.8 6.4 0.00 0.00 0.00 99 1013.5
20260905094859 23 337 1.6 3.2 0.00 0.00 0.00 98 1013.5
20260905094359 23 275 1.6 3.2 0.00 0.00 0.00 99 1013.6
20260905093859 22 312 1.6 3.2 0.00 0.00 0.00 99 1013.6
20260905093400 22 322 3.2 3.2 0.00 0.00 0.00 98 1013.5
20260905092859 23 8 1.6 3.2 0.00 0.00 0.00 98 1013.5
20260905092359 23 307 1.6 4.8 0.00 0.00 0.00 99 1013.4
20260905091900 22 324 3.2 3.2 0.00 0.00 0.00 98 1013.3
20260905091359 22 346 0.0 3.2 0.00 0.00 0.00 98 1013.3
20260905090900 22 316 1.6 3.2 0.00 0.00 0.00 98 1013.3
20260905090403 22 315 3.2 4.8 0.00 0.00 0.00 98 1013.3
20260905085859 22 325 1.6 6.4 0.00 0.00 0.00 98 1013.3
20260905085359 23 349 1.6 4.8 0.00 0.00 0.00 98 1013.4
20260905084900 23 320 0.0 3.2 0.00 0.00 0.00 98 1013.3
20260905084359 23 95 1.6 3.2 0.00 0.00 0.00 98 1013.3
20260905083900 23 96 3.2 4.8 0.00 0.00 0.00 98 1013.3
20260905083400 23 85 3.2 4.8 0.00 0.00 0.00 98 1013.3
20260905082859 23 324 1.6 4.8 0.00 0.00 0.00 98 1013.3
20260905082359 23 356 1.6 3.2 0.00 0.00 0.00 97 1013.3
20260905081859 23 89 1.6 3.2 0.00 0.00 0.00 97 1013.3
20260905081359 23 41 1.6 4.8 0.00 0.00 0.00 97 1013.3
20260905080859 23 45 1.6 6.4 0.00 0.00 0.00 97 1013.3
20260905080359 23 290 3.2 4.8 0.00 0.00 0.00 97 1013.3
20260905075859 23 335 1.6 6.4 0.00 0.00 0.00 97 1013.3
20260905075359 23 31 3.2 3.2 0.00 0.00 0.00 97 1013.3
20260905074859 23 323 1.6 4.8 0.00 0.00 0.00 97 1013.2
20260905074400 23 105 1.6 3.2 0.00 0.00 0.00 96 1013.2
20260905073859 23 101 1.6 4.8 0.00 0.00 0.00 96 1013.2
20260905073359 23 343 3.2 4.8 0.00 0.00 0.00 96 1013.2
20260905072859 23 306 1.6 3.2 0.00 0.00 0.00 97 1013.3
20260905072359 23 319 3.2 4.8 0.00 0.00 0.00 96 1013.3
20260905071859 23 343 1.6 3.2 0.00 0.00 0.00 96 1013.3
20260905071359 23 295 1.6 6.4 0.00 0.00 0.00 96 1013.3
20260905070901 23 249 1.6 3.2 0.00 0.00 0.00 96 1013.3
20260905070359 23 78 0.0 1.6 0.00 0.00 0.00 96 1013.4
20260905065859 23 74 1.6 4.8 0.00 0.00 0.00 95 1013.5
20260905065359 23 303 1.6 3.2 0.00 0.00 0.00 95 1013.5
20260905064859 23 295 1.6 3.2 0.00 0.00 0.00 96 1013.5
20260905064359 23 312 3.2 3.2 0.00 0.00 0.00 95 1013.5
20260905063859 23 352 0.0 3.2 0.00 0.00 0.00 96 1013.6
20260905063359 23 17 1.6 3.2 0.00 0.00 0.00 96 1013.7
20260905062859 23 317 0.0 3.2 0.00 0.00 0.00 95 1013.7
20260905062359 23 349 1.6 3.2 0.00 0.00 0.00 95 1013.7
20260905061900 23 248 1.6 3.2 0.00 0.00 0.00 95 1013.8
20260905061400 24 20 0.0 3.2 0.00 0.00 0.00 95 1013.8
20260905060859 24 88 3.2 4.8 0.00 0.00 0.00 94 1013.8
20260905060359 24 62 1.6 3.2 0.00 0.00 0.00 93 1013.8
20260905055859 24 360 0.0 0.0 0.00 0.00 0.00 92 1013.8
20260905055400 24 301 1.6 3.2 0.00 0.00 0.00 93 1013.9
20260905054859 24 360 1.6 3.2 0.00 0.00 0.00 94 1014.0
20260905054359 24 95 0.0 3.2 0.00 0.00 0.00 94 1014.0
20260905053859 24 86 3.2 3.2 0.00 0.00 0.00 94 1014.0
20260905053359 24 95 3.2 4.8 0.00 0.00 0.00 94 1014.0
20260905052859 24 77 3.2 4.8 0.00 0.00 0.00 93 1014.0